EW6308 Weather Reports


time (UTC)temp
C
wind
direction
speed
KPH
gust
KPH
rain 1hr
cm
rain 24hr
cm
rain mn
cm
humidity
%
barometer
mb
20260509045502 21 232 0.0 0.0 0.00 0.00 0.00 93 1012.9
20260509044959 21 232 0.0 0.0 0.00 0.00 0.00 93 1012.8
20260509044457 21 232 0.0 0.0 0.00 0.00 0.00 93 1012.7
20260509043954 21 232 0.0 0.0 0.00 0.00 0.00 93 1012.8
20260509043449 21 266 0.0 0.0 0.00 0.00 0.00 93 1012.9
20260509042945 21 267 0.0 0.0 0.00 0.00 0.00 93 1012.8
20260509042442 21 267 0.0 0.0 0.00 0.00 0.00 93 1012.8
20260509041938 21 267 0.0 0.0 0.00 0.00 0.00 93 1012.7
20260509041435 21 267 0.0 0.0 0.00 0.00 0.00 93 1012.6
20260509040934 21 267 0.0 0.0 0.00 0.00 0.00 93 1012.7
20260509040431 21 284 1.6 1.6 0.00 0.00 0.00 93 1012.7
20260509035928 21 274 1.6 1.6 0.00 0.00 0.00 93 1012.5
20260509035425 21 270 0.0 0.0 0.00 0.00 0.00 93 1012.3
20260509034921 21 270 0.0 0.0 0.00 0.00 0.00 92 1012.2
20260509034419 21 276 0.0 0.0 0.00 0.00 0.00 92 1012.0
20260509033916 21 254 0.0 0.0 0.00 0.00 0.00 92 1012.0
20260509033413 21 227 0.0 0.0 0.00 0.00 0.00 92 1011.8
20260509032909 21 227 0.0 0.0 0.00 0.00 0.00 91 1011.8
20260509032407 21 228 0.0 0.0 0.00 0.00 0.00 91 1011.8
20260509031905 21 229 0.0 0.0 0.00 0.00 0.00 91 1011.6
20260509031402 21 228 0.0 0.0 0.00 0.00 0.00 91 1011.6
20260509030859 21 223 0.0 0.0 0.00 0.00 0.00 90 1011.4
20260509030357 21 223 1.6 1.6 0.00 0.00 0.00 90 1011.6
20260509025854 21 236 0.0 0.0 0.00 0.00 0.00 90 1011.4
20260509025349 22 261 0.0 0.0 0.00 0.00 0.00 89 1011.3
20260509024845 22 262 0.0 0.0 0.00 0.00 0.00 88 1011.4
20260509024341 22 263 0.0 1.6 0.00 0.00 0.00 88 1011.3
20260509023838 22 246 0.0 0.0 0.00 0.00 0.00 87 1011.1
20260509023336 22 178 0.0 1.6 0.00 0.00 0.00 87 1011.2
20260509022832 22 205 1.6 3.2 0.00 0.00 0.00 87 1010.9
20260509022330 22 194 3.2 3.2 0.00 0.00 0.00 86 1010.7
20260509021826 22 205 1.6 3.2 0.00 0.00 0.00 86 1011.0
20260509021323 22 197 3.2 4.8 0.00 0.00 0.00 86 1011.0
20260509020821 22 185 1.6 3.2 0.00 0.00 0.00 86 1010.8
20260509020319 22 184 1.6 3.2 0.00 0.00 0.00 85 1010.7
20260509015816 22 176 1.6 3.2 0.00 0.00 0.00 85 1010.6
20260509015314 22 199 1.6 3.2 0.00 0.00 0.00 85 1010.5
20260509014811 23 205 1.6 1.6 0.00 0.00 0.00 85 1010.8
20260509014308 23 203 0.0 1.6 0.00 0.00 0.00 85 1010.7
20260509013804 23 204 0.0 0.0 0.00 0.00 0.00 85 1010.8
20260509013300 23 204 0.0 1.6 0.00 0.00 0.00 84 1010.8
20260509012756 23 206 0.0 0.0 0.00 0.00 0.00 84 1010.9
20260509012253 23 206 0.0 0.0 0.00 0.00 0.00 84 1010.9
20260509011751 23 218 0.0 0.0 0.00 0.00 0.00 84 1010.9
20260509011248 23 221 0.0 1.6 0.00 0.00 0.00 84 1010.9
20260509010746 23 227 0.0 1.6 0.00 0.00 0.00 83 1010.8
20260509010243 23 223 0.0 1.6 0.00 0.00 0.00 83 1010.9
20260509005741 23 209 3.2 4.8 0.00 0.00 0.00 83 1010.9
20260509005238 23 199 4.8 6.4 0.00 0.00 0.00 83 1011.0
20260509004737 23 192 3.2 3.2 0.00 0.00 0.00 82 1011.0
20260509004235 23 219 1.6 3.2 0.00 0.00 0.00 82 1010.8
20260509003733 23 220 0.0 4.8 0.00 0.00 0.00 82 1011.1
20260509003230 23 209 3.2 4.8 0.00 0.00 0.00 82 1011.0
20260509002727 23 182 3.2 4.8 0.00 0.00 0.00 82 1010.8
20260509002225 23 206 1.6 4.8 0.00 0.00 0.00 81 1011.0
20260509001722 23 167 1.6 6.4 0.00 0.00 0.00 81 1010.8
20260509001218 23 170 3.2 6.4 0.00 0.00 0.00 81 1010.8
20260509000716 23 200 3.2 9.7 0.00 0.00 0.00 81 1010.6
20260509000213 23 201 3.2 9.7 0.00 0.00 0.00 80 1010.9
20260508235710 23 209 3.2 4.8 0.00 0.00 0.00 80 1011.0
20260508235206 23 229 3.2 11.3 0.00 0.00 0.00 80 1010.9
20260508234704 23 144 6.4 11.3 0.00 0.00 0.00 80 1011.0
20260508234200 23 227 3.2 6.4 0.00 0.00 0.00 80 1011.0
20260508233700 23 205 4.8 6.4 0.00 0.00 0.00 80 1010.8
20260508233157 23 234 1.6 6.4 0.00 0.00 0.00 80 1010.6
20260508232654 24 214 6.4 11.3 0.00 0.00 0.00 79 1010.9
20260508232150 24 168 1.6 4.8 0.00 0.00 0.00 79 1010.8
20260508231649 24 177 6.4 9.7 0.00 0.00 0.00 78 1010.8
20260508231145 23 233 0.0 6.4 0.00 0.00 0.00 79 1010.9
20260508230642 23 146 4.8 12.9 0.00 0.00 0.00 79 1011.0
20260508230138 24 267 3.2 6.4 0.00 0.00 0.00 79 1011.0
20260508225636 24 153 3.2 4.8 0.00 0.00 0.00 78 1011.1
20260508225132 24 81 3.2 11.3 0.00 0.00 0.00 77 1011.1
20260508224630 24 120 3.2 3.2 0.00 0.00 0.00 77 1011.1
20260508224128 24 70 3.2 6.4 0.00 0.00 0.00 77 1011.2
20260508223625 24 183 1.6 6.4 0.00 0.00 0.00 77 1011.2
20260508223122 24 201 3.2 4.8 0.00 0.00 0.00 77 1011.0
20260508222620 24 229 1.6 9.7 0.00 0.00 0.00 77 1011.1
20260508222117 25 205 4.8 6.4 0.00 0.00 0.00 76 1011.3
20260508221613 24 221 3.2 9.7 0.00 0.00 0.00 77 1011.2
20260508221108 24 241 0.0 4.8 0.00 0.00 0.00 77 1011.3
20260508220605 24 80 4.8 9.7 0.00 0.00 0.00 77 1011.5
20260508215559 23 169 3.2 6.4 0.00 0.00 0.00 77 1011.6
20260508215055 23 234 3.2 9.7 0.00 0.00 0.00 78 1011.9
20260508214553 24 174 3.2 6.4 0.00 0.00 0.00 77 1011.8
20260508214049 24 179 1.6 9.7 0.00 0.00 0.00 77 1011.8
20260508213546 23 192 3.2 6.4 0.00 0.00 0.00 77 1011.8
20260508213042 23 215 0.0 3.2 0.00 0.00 0.00 79 1012.0
20260508212539 23 60 3.2 4.8 0.00 0.00 0.00 78 1012.1
20260508212035 23 184 3.2 9.7 0.00 0.00 0.00 77 1012.3
20260508211531 22 226 1.6 4.8 0.00 0.00 0.00 79 1012.4
20260508211027 22 181 3.2 4.8 0.00 0.00 0.00 79 1012.5
20260508210524 22 206 0.0 3.2 0.00 0.00 0.00 79 1012.5
20260508210022 22 244 0.0 1.6 0.00 0.00 0.00 79 1012.7
20260508205518 22 264 0.0 0.0 0.00 0.00 0.00 79 1012.8
20260508205014 22 83 3.2 6.4 0.00 0.00 0.00 79 1012.9
20260508204512 22 209 3.2 4.8 0.00 0.00 0.00 79 1012.8
20260508204007 23 210 4.8 6.4 0.00 0.00 0.00 77 1012.8
20260508203503 23 281 0.0 4.8 0.00 0.00 0.00 76 1012.8
20260508202959 23 228 4.8 4.8 0.00 0.00 0.00 75 1012.9
20260508202456 23 222 0.0 3.2 0.00 0.00 0.00 77 1013.0
20260508201953 23 216 6.4 6.4 0.00 0.00 0.00 76 1013.0
20260508201450 22 122 1.6 3.2 0.00 0.00 0.00 77 1013.0
20260508200947 23 102 1.6 3.2 0.00 0.00 0.00 76 1013.1
20260508200444 22 204 3.2 4.8 0.00 0.00 0.00 77 1013.1
20260508195938 22 178 1.6 4.8 0.00 0.00 0.00 76 1013.1
20260508195436 22 155 1.6 4.8 0.00 0.00 0.00 76 1013.2
20260508194932 22 201 1.6 6.4 0.00 0.00 0.00 78 1013.1
20260508194429 22 209 6.4 6.4 0.00 0.00 0.00 77 1013.3
20260508193926 22 209 0.0 4.8 0.00 0.00 0.00 78 1013.5
20260508193424 22 83 9.7 11.3 0.00 0.00 0.00 74 1013.4
20260508192919 22 246 0.0 1.6 0.00 0.00 0.00 77 1013.4
20260508192417 21 230 0.0 4.8 0.00 0.00 0.00 79 1013.4
20260508191914 21 117 6.4 9.7 0.00 0.00 0.00 79 1013.7
20260508191411 21 105 3.2 4.8 0.00 0.00 0.00 77 1013.7
20260508190908 21 205 1.6 6.4 0.00 0.00 0.00 78 1013.7
20260508190405 21 68 3.2 9.7 0.00 0.00 0.00 80 1013.9
20260508185901 21 84 3.2 6.4 0.00 0.00 0.00 78 1013.8
20260508185359 21 217 1.6 4.8 0.00 0.00 0.00 78 1013.8
20260508184855 21 137 0.0 1.6 0.00 0.00 0.00 81 1013.9
20260508184353 21 219 0.0 1.6 0.00 0.00 0.00 81 1014.1
20260508183849 20 245 0.0 1.6 0.00 0.00 0.00 81 1014.2
20260508183346 20 105 3.2 3.2 0.00 0.00 0.00 81 1014.2
20260508182842 20 179 0.0 1.6 0.00 0.00 0.00 83 1014.3
20260508182339 20 167 1.6 1.6 0.00 0.00 0.00 82 1014.3
20260508181834 20 137 0.0 3.2 0.00 0.00 0.00 83 1014.6
20260508181331 20 71 1.6 4.8 0.00 0.00 0.00 82 1014.5
20260508180828 20 68 1.6 3.2 0.00 0.00 0.00 83 1014.6
20260508180325 20 68 3.2 4.8 0.00 0.00 0.00 82 1014.9
20260508175821 20 36 1.6 3.2 0.00 0.00 0.00 82 1014.9
20260508175318 20 93 0.0 3.2 0.00 0.00 0.00 81 1014.9
20260508174816 20 39 1.6 1.6 0.00 0.00 0.00 81 1015.0
20260508174313 20 237 0.0 0.0 0.00 0.00 0.00 81 1015.1
20260508173809 20 85 1.6 1.6 0.00 0.00 0.00 81 1015.1
20260508173307 20 101 0.0 1.6 0.00 0.00 0.00 80 1015.4
20260508172802 20 264 0.0 0.0 0.00 0.00 0.00 81 1015.3
20260508172300 19 88 3.2 3.2 0.00 0.00 0.00 81 1015.6
20260508171755 19 193 1.6 3.2 0.00 0.00 0.00 81 1015.5
20260508171252 19 188 4.8 4.8 0.00 0.00 0.00 81 1015.7
20260508170749 20 233 4.8 4.8 0.00 0.00 0.00 80 1015.7
20260508170247 20 215 1.6 4.8 0.00 0.00 0.00 80 1015.8
20260508165744 19 220 0.0 1.6 0.00 0.00 0.00 81 1015.7
20260508165241 19 267 0.0 3.2 0.00 0.00 0.00 81 1015.7
20260508164737 19 13 3.2 6.4 0.00 0.00 0.00 80 1015.7
20260508164234 20 283 0.0 1.6 0.00 0.00 0.00 80 1015.9
20260508163732 19 221 0.0 1.6 0.00 0.00 0.00 81 1015.9
20260508163229 19 86 1.6 1.6 0.00 0.00 0.00 80 1015.8
20260508162725 20 191 1.6 3.2 0.00 0.00 0.00 79 1015.9
20260508162222 19 224 1.6 4.8 0.00 0.00 0.00 80 1015.8
20260508161719 20 14 0.0 4.8 0.00 0.00 0.00 79 1016.0
20260508161216 20 108 3.2 6.4 0.00 0.00 0.00 77 1015.8
20260508160714 19 233 0.0 0.0 0.00 0.00 0.00 79 1015.8
20260508160212 19 85 3.2 9.7 0.00 0.00 0.00 78 1015.7
20260508155708 19 48 3.2 4.8 0.00 0.00 0.00 78 1015.9
20260508155205 19 48 3.2 9.7 0.00 0.00 0.00 78 1016.0
20260508154703 19 29 0.0 3.2 0.00 0.00 0.00 78 1016.0
20260508154159 19 86 4.8 6.4 0.00 0.00 0.00 78 1016.0
20260508153656 18 71 1.6 3.2 0.00 0.00 0.00 78 1015.9
20260508153153 18 251 0.0 3.2 0.00 0.00 0.00 77 1015.9
20260508152650 18 102 1.6 4.8 0.00 0.00 0.00 78 1016.0
20260508152145 18 71 3.2 4.8 0.00 0.00 0.00 78 1015.8
20260508151642 18 239 0.0 1.6 0.00 0.00 0.00 80 1016.0
20260508151139 18 0 1.6 3.2 0.00 0.00 0.00 80 1016.1
20260508150636 18 41 1.6 3.2 0.00 0.00 0.00 80 1016.0
20260508150132 18 31 1.6 3.2 0.00 0.00 0.00 80 1016.3
20260508145628 18 325 3.2 4.8 0.00 0.00 0.00 80 1016.1
20260508145125 18 4 3.2 4.8 0.00 0.00 0.00 79 1016.4
20260508144623 18 330 3.2 3.2 0.00 0.00 0.00 79 1016.2
20260508144120 17 298 3.2 3.2 0.00 0.00 0.00 81 1016.0
20260508143617 17 359 1.6 3.2 0.00 0.00 0.00 80 1016.1
20260508143114 17 343 3.2 4.8 0.00 0.00 0.00 80 1016.3
20260508142610 18 338 3.2 4.8 0.00 0.00 0.00 79 1016.3
20260508142107 18 343 0.0 1.6 0.00 0.00 0.00 79 1016.5
20260508141604 18 95 1.6 1.6 0.00 0.00 0.00 79 1016.6
20260508141101 18 80 1.6 3.2 0.00 0.00 0.00 79 1016.4
20260508140558 18 62 1.6 4.8 0.00 0.00 0.00 78 1016.5
20260508140055 18 259 0.0 1.6 0.00 0.00 0.00 78 1016.4
20260508135550 18 210 0.0 3.2 0.00 0.00 0.00 78 1016.4
20260508135047 17 303 0.0 1.6 0.00 0.00 0.00 78 1016.3
20260508134544 17 279 0.0 1.6 0.00 0.00 0.00 79 1016.4
20260508134041 17 326 0.0 0.0 0.00 0.00 0.00 80 1016.4
20260508133537 17 35 1.6 1.6 0.00 0.00 0.00 80 1016.6
20260508133035 17 145 0.0 1.6 0.00 0.00 0.00 80 1016.4
20260508132533 17 198 0.0 1.6 0.00 0.00 0.00 82 1016.3
20260508132029 17 222 0.0 3.2 0.00 0.00 0.00 82 1016.4
20260508131524 16 219 3.2 4.8 0.00 0.00 0.00 81 1016.5
20260508131021 17 203 1.6 3.2 0.00 0.00 0.00 81 1016.7
20260508130519 17 219 1.6 3.2 0.00 0.00 0.00 81 1016.6
20260508130015 17 236 0.0 1.6 0.00 0.00 0.00 81 1016.3
20260508125511 17 209 1.6 3.2 0.00 0.00 0.00 81 1016.2
20260508125009 17 166 0.0 1.6 0.00 0.00 0.00 81 1016.1
20260508124506 16 290 0.0 1.6 0.00 0.00 0.00 83 1016.1
20260508124003 16 201 0.0 0.0 0.00 0.00 0.00 86 1015.9
20260508123502 16 202 0.0 1.6 0.00 0.00 0.00 86 1016.1
20260508122958 16 234 0.0 0.0 0.00 0.00 0.00 86 1016.0
20260508122455 16 234 0.0 1.6 0.00 0.00 0.00 86 1016.0
20260508121952 16 264 0.0 0.0 0.00 0.00 0.00 85 1015.9
20260508121450 16 264 0.0 0.0 0.00 0.00 0.00 85 1015.9
20260508120948 15 308 1.6 3.2 0.00 0.00 0.00 85 1016.1
20260508120445 15 274 1.6 1.6 0.00 0.00 0.00 85 1016.2
20260508115943 15 228 0.0 1.6 0.00 0.00 0.00 85 1016.3
20260508115441 15 217 1.6 1.6 0.00 0.00 0.00 85 1016.1
20260508114937 15 260 0.0 0.0 0.00 0.00 0.00 84 1016.3
20260508114434 15 277 0.0 0.0 0.00 0.00 0.00 84 1016.2
20260508113930 15 208 0.0 3.2 0.00 0.00 0.00 84 1016.2
20260508113428 16 185 0.0 1.6 0.00 0.00 0.00 84 1016.2
20260508112925 16 196 3.2 6.4 0.00 0.00 0.00 84 1016.2
20260508112422 16 193 3.2 3.2 0.00 0.00 0.00 84 1016.3
20260508111919 16 203 0.0 4.8 0.00 0.00 0.00 84 1016.5
20260508111416 15 205 1.6 3.2 0.00 0.00 0.00 85 1016.4
20260508110913 15 214 3.2 3.2 0.00 0.00 0.00 85 1016.3
20260508110411 15 202 0.0 4.8 0.00 0.00 0.00 86 1016.2
20260508105910 15 200 1.6 3.2 0.00 0.00 0.00 87 1016.2
20260508105406 15 189 1.6 3.2 0.00 0.00 0.00 88 1016.1
20260508104904 15 207 3.2 3.2 0.00 0.00 0.00 88 1016.5
20260508104401 15 207 0.0 1.6 0.00 0.00 0.00 87 1016.3
20260508103858 15 226 0.0 1.6 0.00 0.00 0.00 87 1016.2
20260508103355 15 243 0.0 3.2 0.00 0.00 0.00 88 1016.4
20260508102852 15 220 0.0 0.0 0.00 0.00 0.00 88 1016.5
20260508102350 15 257 0.0 0.0 0.00 0.00 0.00 88 1016.9
20260508101847 15 257 0.0 0.0 0.00 0.00 0.00 88 1017.1
20260508101344 15 308 0.0 0.0 0.00 0.00 0.00 88 1017.2
20260508100842 15 279 0.0 0.0 0.00 0.00 0.00 88 1017.4
20260508100341 15 279 0.0 0.0 0.00 0.00 0.00 88 1017.5
20260508095836 15 280 0.0 0.0 0.00 0.00 0.00 87 1017.7
20260508095334 15 280 0.0 1.6 0.00 0.00 0.00 87 1017.5
20260508094831 15 279 1.6 1.6 0.00 0.00 0.00 88 1017.6
20260508094327 15 279 0.0 1.6 0.00 0.00 0.00 88 1017.4
20260508093824 15 281 1.6 1.6 0.00 0.00 0.00 88 1017.4
20260508093322 15 283 1.6 1.6 0.00 0.00 0.00 89 1017.5
20260508092819 15 283 0.0 1.6 0.00 0.00 0.00 90 1017.2
20260508092317 15 288 1.6 1.6 0.00 0.00 0.00 90 1017.4
20260508091815 15 286 0.0 1.6 0.00 0.00 0.00 91 1017.2
20260508091311 15 340 3.2 4.8 0.00 0.00 0.00 91 1017.2
20260508090809 14 284 0.0 1.6 0.00 0.00 0.00 92 1017.1
20260508090307 14 320 3.2 3.2 0.00 0.00 0.00 92 1017.1
20260508085803 14 288 1.6 3.2 0.00 0.00 0.00 92 1016.9
20260508085300 14 327 1.6 3.2 0.00 0.00 0.00 93 1016.7
20260508084755 14 351 3.2 3.2 0.00 0.00 0.00 93 1016.4
20260508084253 14 311 1.6 1.6 0.00 0.00 0.00 94 1016.5
20260508083751 14 319 1.6 3.2 0.00 0.00 0.00 94 1016.4
20260508083248 14 295 0.0 1.6 0.00 0.00 0.00 94 1016.3
20260508082748 14 349 1.6 3.2 0.00 0.00 0.00 94 1016.4
20260508082246 14 321 1.6 1.6 0.00 0.00 0.00 95 1016.5
20260508081743 13 294 1.6 1.6 0.00 0.00 0.00 94 1016.8
20260508081239 13 257 0.0 1.6 0.00 0.00 0.00 94 1016.8
20260508080737 13 233 0.0 0.0 0.00 0.00 0.00 94 1016.6
20260508080235 13 233 0.0 0.0 0.00 0.00 0.00 94 1016.7
20260508075731 13 233 0.0 0.0 0.00 0.00 0.00 94 1016.9
20260508075228 14 233 0.0 0.0 0.00 0.00 0.00 94 1017.1
20260508074726 14 233 0.0 0.0 0.00 0.00 0.00 94 1017.2
20260508074223 14 233 0.0 0.0 0.00 0.00 0.00 94 1017.0
20260508073719 14 234 0.0 0.0 0.00 0.00 0.00 94 1017.3
20260508073218 14 220 0.0 0.0 0.00 0.00 0.00 94 1017.3
20260508072713 14 220 0.0 1.6 0.00 0.00 0.00 94 1017.3
20260508072210 14 255 0.0 1.6 0.00 0.00 0.00 94 1017.2
20260508071708 14 247 0.0 0.0 0.00 0.00 0.00 93 1017.1
20260508071206 14 247 0.0 0.0 0.00 0.00 0.00 93 1016.9
20260508070703 14 247 0.0 0.0 0.00 0.00 0.00 93 1017.3
20260508070202 14 247 0.0 0.0 0.00 0.00 0.00 93 1017.3
20260508065658 14 247 0.0 0.0 0.00 0.00 0.00 92 1017.4
20260508065156 14 247 0.0 0.0 0.00 0.00 0.00 92 1017.2
20260508064654 14 247 0.0 0.0 0.00 0.00 0.00 92 1017.3
20260508064152 14 246 0.0 0.0 0.00 0.00 0.00 92 1017.4
20260508063649 15 265 0.0 1.6 0.00 0.00 0.00 92 1017.1
20260508063147 15 262 0.0 1.6 0.00 0.00 0.00 92 1017.3
20260508062644 15 260 0.0 0.0 0.00 0.00 0.00 92 1017.5
20260508062140 15 223 0.0 0.0 0.00 0.00 0.00 91 1017.4
20260508061638 15 239 0.0 0.0 0.00 0.00 0.00 91 1017.3
20260508061135 15 265 0.0 0.0 0.00 0.00 0.00 91 1017.1
20260508060632 15 265 0.0 0.0 0.00 0.00 0.00 91 1017.3
20260508060129 15 265 0.0 0.0 0.00 0.00 0.00 91 1017.2
20260508055624 15 219 0.0 0.0 0.00 0.00 0.00 90 1017.3
20260508055121 15 218 0.0 0.0 0.00 0.00 0.00 90 1017.3
20260508054618 15 218 0.0 0.0 0.00 0.00 0.00 89 1017.3
20260508054116 15 217 0.0 0.0 0.00 0.00 0.00 89 1017.3
20260508053612 15 301 0.0 0.0 0.00 0.00 0.00 90 1017.3
20260508053110 15 301 1.6 1.6 0.00 0.00 0.00 90 1017.7
20260508052607 15 301 0.0 1.6 0.00 0.00 0.00 90 1017.7
20260508052105 15 301 0.0 0.0 0.00 0.00 0.00 90 1017.8
20260508051600 15 305 1.6 3.2 0.00 0.00 0.00 90 1017.9
20260508051056 15 303 0.0 1.6 0.00 0.00 0.00 91 1018.0
20260508050552 15 302 1.6 1.6 0.00 0.00 0.00 91 1017.9
20260508050050 15 303 0.0 0.0 0.00 0.00 0.00 91 1018.0
20260508045546 15 304 0.0 1.6 0.00 0.00 0.00 91 1017.8